TimeBST,TemperatureF,Dew PointF,Humidity,Sea Level PressureIn,VisibilityMPH,Wind Direction,Wind SpeedMPH,Gust SpeedMPH,PrecipitationIn,Events,Conditions,WindDirDegrees,DateUTC
12:20 AM,53.6,48.2,82,29.39,6.2,SSE,18.4,31.1,N/A,Rain,Light Rain,160,2013-04-13 23:20:00
12:50 AM,53.6,48.2,82,29.36,6.2,South,21.9,33.4,N/A,Rain,Light Rain,180,2013-04-13 23:50:00
1:20 AM,53.6,50.0,88,29.36,6.2,South,24.2,-,N/A,,Overcast,180,2013-04-14 00:20:00
1:50 AM,53.6,50.0,88,29.39,6.2,South,23.0,34.5,N/A,,Overcast,190,2013-04-14 00:50:00
2:20 AM,53.6,50.0,88,29.39,6.2,South,24.2,39.1,N/A,,Mostly Cloudy,190,2013-04-14 01:20:00
2:50 AM,53.6,50.0,88,29.39,6.2,South,23.0,-,N/A,,Overcast,190,2013-04-14 01:50:00
3:20 AM,53.6,50.0,88,29.39,6.2,South,19.6,-,N/A,,Overcast,190,2013-04-14 02:20:00
3:50 AM,53.6,50.0,88,29.39,-9999.0,South,20.7,-,N/A,Rain,Light Rain,190,2013-04-14 02:50:00
4:20 AM,51.8,50.0,94,29.39,3.7,South,19.6,31.1,N/A,Rain,Light Rain,190,2013-04-14 03:20:00
4:50 AM,51.8,50.0,94,29.39,6.2,South,21.9,-,N/A,,Overcast,180,2013-04-14 03:50:00
5:20 AM,51.8,50.0,94,29.39,6.2,South,17.3,-,N/A,,Mostly Cloudy,180,2013-04-14 04:20:00
5:50 AM,51.8,50.0,94,29.39,6.2,South,19.6,-,N/A,,Mostly Cloudy,190,2013-04-14 04:50:00
6:20 AM,51.8,50.0,94,29.39,6.2,South,19.6,-,N/A,Rain,Light Rain,190,2013-04-14 05:20:00
6:50 AM,51.8,50.0,94,29.39,3.1,South,18.4,-,N/A,Rain,Light Rain,180,2013-04-14 05:50:00
7:20 AM,51.8,50.0,94,29.36,-9999.0,South,16.1,-,N/A,Rain,Rain,190,2013-04-14 06:20:00
7:50 AM,51.8,50.0,94,29.39,-9999.0,SSW,16.1,-,N/A,Rain,Rain,200,2013-04-14 06:50:00
8:20 AM,50.0,48.2,94,29.39,-9999.0,SW,15.0,-,N/A,Rain,Light Rain,220,2013-04-14 07:20:00
8:50 AM,50.0,48.2,94,29.39,2.5,SW,17.3,-,N/A,Rain,Light Rain,220,2013-04-14 07:50:00
9:20 AM,50.0,48.2,94,29.39,1.6,SW,13.8,-,N/A,Rain,Light Rain,220,2013-04-14 08:20:00
9:50 AM,50.0,48.2,94,29.39,1.9,SSW,12.7,-,N/A,Rain,Light Rain,210,2013-04-14 08:50:00
10:20 AM,50.0,48.2,94,29.39,2.8,SW,21.9,-,N/A,Rain,Rain,220,2013-04-14 09:20:00
10:50 AM,48.2,46.4,93,29.42,5.0,SW,19.6,-,N/A,Rain,Light Rain,220,2013-04-14 09:50:00
11:20 AM,50.0,46.4,87,29.42,6.2,SSW,16.1,-,N/A,,Mostly Cloudy,210,2013-04-14 10:20:00
11:50 AM,51.8,48.2,88,29.44,6.2,SSW,20.7,-,N/A,,Scattered Clouds,210,2013-04-14 10:50:00
12:20 PM,55.4,48.2,77,29.44,6.2,South,17.3,-,N/A,,Scattered Clouds,190,2013-04-14 11:20:00
12:50 PM,55.4,46.4,72,29.44,6.2,SSW,26.5,-,N/A,,Mostly Cloudy,200,2013-04-14 11:50:00
1:20 PM,57.2,44.6,63,29.44,6.2,South,24.2,-,N/A,,Mostly Cloudy,190,2013-04-14 12:20:00
1:50 PM,55.4,44.6,67,29.44,6.2,South,24.2,-,N/A,,Mostly Cloudy,190,2013-04-14 12:50:00
2:20 PM,59.0,48.2,67,29.44,6.2,SSW,21.9,34.5,N/A,,Mostly Cloudy,200,2013-04-14 13:20:00
2:50 PM,59.0,46.4,63,29.44,6.2,SSW,24.2,36.8,N/A,,Mostly Cloudy,200,2013-04-14 13:50:00
3:20 PM,57.2,46.4,67,29.44,6.2,South,25.3,36.8,N/A,,Mostly Cloudy,190,2013-04-14 14:20:00
3:50 PM,57.2,46.4,67,29.42,6.2,South,27.6,-,N/A,Rain,Light Rain Showers,190,2013-04-14 14:50:00
4:20 PM,57.2,46.4,67,29.42,6.2,South,24.2,38.0,N/A,,Mostly Cloudy,190,2013-04-14 15:20:00
4:50 PM,57.2,46.4,67,29.42,6.2,South,20.7,32.2,N/A,,Scattered Clouds,190,2013-04-14 15:50:00
5:20 PM,57.2,46.4,67,29.42,6.2,South,19.6,31.1,N/A,,Scattered Clouds,190,2013-04-14 16:20:00
5:50 PM,57.2,46.4,67,29.42,6.2,South,24.2,40.3,N/A,,Scattered Clouds,190,2013-04-14 16:50:00
6:20 PM,55.4,46.4,72,29.42,6.2,South,26.5,38.0,N/A,,Scattered Clouds,180,2013-04-14 17:20:00
6:50 PM,55.4,46.4,72,29.44,6.2,South,21.9,-,N/A,,Scattered Clouds,190,2013-04-14 17:50:00
7:20 PM,53.6,44.6,72,29.44,6.2,South,23.0,34.5,N/A,,Scattered Clouds,190,2013-04-14 18:20:00
7:50 PM,53.6,44.6,72,29.44,6.2,South,23.0,35.7,N/A,,Mostly Cloudy,190,2013-04-14 18:50:00
8:20 PM,53.6,44.6,72,29.42,6.2,South,17.3,-,N/A,,Scattered Clouds,180,2013-04-14 19:20:00
8:50 PM,53.6,44.6,72,29.44,5.6,South,16.1,27.6,N/A,,Mostly Cloudy,190,2013-04-14 19:50:00
9:20 PM,53.6,44.6,72,29.44,6.2,South,24.2,-,N/A,,Scattered Clouds,190,2013-04-14 20:20:00
9:50 PM,51.8,44.6,76,29.42,6.2,SSW,25.3,39.1,N/A,,Scattered Clouds,200,2013-04-14 20:50:00
10:20 PM,51.8,46.4,82,29.42,6.2,South,24.2,-,N/A,,Mostly Cloudy,190,2013-04-14 21:20:00
10:50 PM,51.8,44.6,76,29.44,6.2,SSW,24.2,-,N/A,,Mostly Cloudy,200,2013-04-14 21:50:00
11:20 PM,51.8,44.6,76,29.44,5.6,SSW,27.6,39.1,N/A,,Mostly Cloudy,200,2013-04-14 22:20:00
11:50 PM,51.8,44.6,76,29.44,5.6,SSW,25.3,38.0,N/A,,Mostly Cloudy,200,2013-04-14 22:50:00